Year,Month,Day,Hour,Minute,Value (Times are PST for temperature in C)
2015,08,22,00,00,16.70
2015,08,22,00,01,16.80
2015,08,22,00,02,16.80
2015,08,22,00,03,16.80
2015,08,22,00,04,16.80
2015,08,22,00,05,16.80
2015,08,22,00,06,16.80
2015,08,22,00,07,16.80
2015,08,22,00,08,16.80
2015,08,22,00,09,16.80
2015,08,22,00,10,16.80
2015,08,22,00,11,16.80
2015,08,22,00,12,16.80
2015,08,22,00,13,16.70
2015,08,22,00,14,16.70
2015,08,22,00,15,16.70
2015,08,22,00,16,16.70
2015,08,22,00,17,16.70
2015,08,22,00,18,16.70
2015,08,22,00,19,16.70
2015,08,22,00,20,16.70
2015,08,22,00,21,16.60
2015,08,22,00,22,16.60
2015,08,22,00,23,16.60
2015,08,22,00,24,16.60
2015,08,22,00,25,16.50
2015,08,22,00,26,16.50
2015,08,22,00,27,16.40
2015,08,22,00,28,16.40
2015,08,22,00,29,16.40
2015,08,22,00,30,16.40
2015,08,22,00,31,16.40
2015,08,22,00,32,16.40
2015,08,22,00,33,16.30
2015,08,22,00,34,16.30
2015,08,22,00,35,16.30
2015,08,22,00,36,16.20
2015,08,22,00,37,16.20
2015,08,22,00,38,16.10
2015,08,22,00,39,16.10
2015,08,22,00,40,16.10
2015,08,22,00,41,16.00
2015,08,22,00,42,16.00
2015,08,22,00,43,15.90
2015,08,22,00,44,15.90
2015,08,22,00,45,15.90
2015,08,22,00,46,15.90
2015,08,22,00,47,15.80
2015,08,22,00,48,15.80
2015,08,22,00,49,15.80
2015,08,22,00,50,15.80
2015,08,22,00,51,15.80
2015,08,22,00,52,15.80
2015,08,22,00,53,15.80
2015,08,22,00,54,15.80
2015,08,22,00,55,15.80
2015,08,22,00,56,15.80
2015,08,22,00,57,15.80
2015,08,22,00,58,15.80
2015,08,22,00,59,15.80
2015,08,22,01,00,15.80
2015,08,22,01,01,15.80
2015,08,22,01,02,15.80
2015,08,22,01,03,15.80
2015,08,22,01,04,15.80
2015,08,22,01,05,15.80
2015,08,22,01,06,15.80
2015,08,22,01,07,15.70
2015,08,22,01,08,15.70
2015,08,22,01,09,15.70
2015,08,22,01,10,15.70
2015,08,22,01,11,15.70
2015,08,22,01,12,15.70
2015,08,22,01,13,15.70
2015,08,22,01,14,15.70
2015,08,22,01,15,15.70
2015,08,22,01,16,15.70
2015,08,22,01,17,15.70
2015,08,22,01,18,15.70
2015,08,22,01,19,15.70
2015,08,22,01,20,15.70
2015,08,22,01,21,15.70
2015,08,22,01,22,15.70
2015,08,22,01,23,15.70
2015,08,22,01,24,15.70
2015,08,22,01,25,15.70
2015,08,22,01,26,15.70
2015,08,22,01,27,15.70
2015,08,22,01,28,15.70
2015,08,22,01,29,15.70
2015,08,22,01,30,15.70
2015,08,22,01,31,15.70
2015,08,22,01,32,15.60
2015,08,22,01,33,15.60
2015,08,22,01,34,15.60
2015,08,22,01,35,15.60
2015,08,22,01,36,15.50
2015,08,22,01,37,15.50
2015,08,22,01,38,15.50
2015,08,22,01,39,15.40
2015,08,22,01,40,15.40
2015,08,22,01,41,15.40
2015,08,22,01,42,15.40
2015,08,22,01,43,15.40
2015,08,22,01,44,15.40
2015,08,22,01,45,15.40
2015,08,22,01,46,15.30
2015,08,22,01,47,15.30
2015,08,22,01,48,15.40
2015,08,22,01,49,15.40
2015,08,22,01,50,15.40
2015,08,22,01,51,15.30
2015,08,22,01,52,15.30
2015,08,22,01,53,15.30
2015,08,22,01,54,15.30
2015,08,22,01,55,15.40
2015,08,22,01,56,15.40
2015,08,22,01,57,15.40
2015,08,22,01,58,15.30
2015,08,22,01,59,15.30
2015,08,22,02,00,15.30
2015,08,22,02,01,15.30
2015,08,22,02,02,15.30
2015,08,22,02,03,15.30
2015,08,22,02,04,15.30
2015,08,22,02,05,15.20
2015,08,22,02,06,15.20
2015,08,22,02,07,15.20
2015,08,22,02,08,15.20
2015,08,22,02,09,15.10
2015,08,22,02,10,15.10
2015,08,22,02,11,15.10
2015,08,22,02,12,15.10
2015,08,22,02,13,15.00
2015,08,22,02,14,15.10
2015,08,22,02,15,15.00
2015,08,22,02,16,15.00
2015,08,22,02,17,15.00
2015,08,22,02,18,15.00
2015,08,22,02,19,15.00
2015,08,22,02,20,15.00
2015,08,22,02,21,15.00
2015,08,22,02,22,15.00
2015,08,22,02,23,15.00
2015,08,22,02,24,15.00
2015,08,22,02,25,15.00
2015,08,22,02,26,15.00
2015,08,22,02,27,15.00
2015,08,22,02,28,15.00
2015,08,22,02,29,15.00
2015,08,22,02,30,15.00
2015,08,22,02,31,15.00
2015,08,22,02,32,15.00
2015,08,22,02,33,15.00
2015,08,22,02,34,15.00
2015,08,22,02,35,15.00
2015,08,22,02,36,15.00
2015,08,22,02,37,15.00
2015,08,22,02,38,15.00
2015,08,22,02,39,15.00
2015,08,22,02,40,15.00
2015,08,22,02,41,15.00
2015,08,22,02,42,15.00
2015,08,22,02,43,15.00
2015,08,22,02,44,15.00
2015,08,22,02,45,15.00
2015,08,22,02,46,15.00
2015,08,22,02,47,15.00
2015,08,22,02,48,15.00
2015,08,22,02,49,15.00
2015,08,22,02,50,15.00
2015,08,22,02,51,15.00
2015,08,22,02,52,15.00
2015,08,22,02,53,15.00
2015,08,22,02,54,15.00
2015,08,22,02,55,15.00
2015,08,22,02,56,15.00
2015,08,22,02,57,14.90
2015,08,22,02,58,14.90
2015,08,22,02,59,14.90
2015,08,22,03,00,14.80
2015,08,22,03,01,14.80
2015,08,22,03,02,14.80
2015,08,22,03,03,14.80
2015,08,22,03,04,14.80
2015,08,22,03,05,14.80
2015,08,22,03,06,14.70
2015,08,22,03,07,14.70
2015,08,22,03,08,14.70
2015,08,22,03,09,14.70
2015,08,22,03,10,14.70
2015,08,22,03,11,14.70
2015,08,22,03,12,14.70
2015,08,22,03,13,14.70
2015,08,22,03,14,14.60
2015,08,22,03,15,14.60
2015,08,22,03,16,14.60
2015,08,22,03,17,14.60
2015,08,22,03,18,14.60
2015,08,22,03,19,14.50
2015,08,22,03,20,14.50
2015,08,22,03,21,14.50
2015,08,22,03,22,14.40
2015,08,22,03,23,14.40
2015,08,22,03,24,14.40
2015,08,22,03,25,14.40
2015,08,22,03,26,14.40
2015,08,22,03,27,14.40
2015,08,22,03,28,14.40
2015,08,22,03,29,14.30
2015,08,22,03,30,14.30
2015,08,22,03,31,14.30
2015,08,22,03,32,14.30
2015,08,22,03,33,14.30
2015,08,22,03,34,14.30
2015,08,22,03,35,14.30
2015,08,22,03,36,14.30
2015,08,22,03,37,14.30
2015,08,22,03,38,14.20
2015,08,22,03,39,14.20
2015,08,22,03,40,14.20
2015,08,22,03,41,14.20
2015,08,22,03,42,14.20
2015,08,22,03,43,14.30
2015,08,22,03,44,14.30
2015,08,22,03,45,14.30
2015,08,22,03,46,14.30
2015,08,22,03,47,14.30
2015,08,22,03,48,14.30
2015,08,22,03,49,14.30
2015,08,22,03,50,14.30
2015,08,22,03,51,14.30
2015,08,22,03,52,14.30
2015,08,22,03,53,14.30
2015,08,22,03,54,14.30
2015,08,22,03,55,14.40
2015,08,22,03,56,14.40
2015,08,22,03,57,14.40
2015,08,22,03,58,14.40
2015,08,22,03,59,14.50
2015,08,22,04,00,14.50
2015,08,22,04,01,14.50
2015,08,22,04,02,14.60
2015,08,22,04,03,14.60
2015,08,22,04,04,14.60
2015,08,22,04,05,14.60
2015,08,22,04,06,14.60
2015,08,22,04,07,14.60
2015,08,22,04,08,14.70
2015,08,22,04,09,14.70
2015,08,22,04,10,14.70
2015,08,22,04,11,14.70
2015,08,22,04,12,14.70
2015,08,22,04,13,14.70
2015,08,22,04,14,14.70
2015,08,22,04,15,14.80
2015,08,22,04,16,14.80
2015,08,22,04,17,14.80
2015,08,22,04,18,14.80
2015,08,22,04,19,14.80
2015,08,22,04,20,14.70
2015,08,22,04,21,14.70
2015,08,22,04,22,14.70
2015,08,22,04,23,14.70
2015,08,22,04,24,14.70
2015,08,22,04,25,14.70
2015,08,22,04,26,14.70
2015,08,22,04,27,14.80
2015,08,22,04,28,14.80
2015,08,22,04,29,14.80
2015,08,22,04,30,14.80
2015,08,22,04,31,14.80
2015,08,22,04,32,14.80
2015,08,22,04,33,14.90
2015,08,22,04,34,15.00
2015,08,22,04,35,15.00
2015,08,22,04,36,15.00
2015,08,22,04,37,15.00
2015,08,22,04,38,15.00
2015,08,22,04,39,15.00
2015,08,22,04,40,15.00
2015,08,22,04,41,15.00
2015,08,22,04,42,15.00
2015,08,22,04,43,15.00
2015,08,22,04,44,15.00
2015,08,22,04,45,15.00
2015,08,22,04,46,15.00
2015,08,22,04,47,15.00
2015,08,22,04,48,15.00
2015,08,22,04,49,15.00
2015,08,22,04,50,15.00
2015,08,22,04,51,15.00
2015,08,22,04,52,15.00
2015,08,22,04,53,15.00
2015,08,22,04,54,15.00
2015,08,22,04,55,15.00
2015,08,22,04,56,15.00
2015,08,22,04,57,15.00
2015,08,22,04,58,15.00
2015,08,22,04,59,14.90
2015,08,22,05,00,14.90
2015,08,22,05,01,14.90
2015,08,22,05,02,14.90
2015,08,22,05,03,14.90
2015,08,22,05,04,14.90
2015,08,22,05,05,15.00
2015,08,22,05,06,15.00
2015,08,22,05,07,15.00
2015,08,22,05,08,15.00
2015,08,22,05,09,15.00
2015,08,22,05,10,15.00
2015,08,22,05,11,15.00
2015,08,22,05,12,15.00
2015,08,22,05,13,15.00
2015,08,22,05,14,15.00
2015,08,22,05,15,15.00
2015,08,22,05,16,15.10
2015,08,22,05,17,15.10
2015,08,22,05,18,15.10
2015,08,22,05,19,15.10
2015,08,22,05,20,15.10
2015,08,22,05,21,15.20
2015,08,22,05,22,15.20
2015,08,22,05,23,15.20
2015,08,22,05,24,15.30
2015,08,22,05,25,15.30
2015,08,22,05,26,15.30
2015,08,22,05,27,15.30
2015,08,22,05,28,15.30
2015,08,22,05,29,15.30
2015,08,22,05,30,15.40
2015,08,22,05,31,15.40
2015,08,22,05,32,15.40
2015,08,22,05,33,15.40
2015,08,22,05,34,15.40
2015,08,22,05,35,15.40
2015,08,22,05,36,15.40
2015,08,22,05,37,15.40
2015,08,22,05,38,15.40
2015,08,22,05,39,15.40
2015,08,22,05,40,15.40
2015,08,22,05,41,15.40
2015,08,22,05,42,15.40
2015,08,22,05,43,15.40
2015,08,22,05,44,15.50
2015,08,22,05,45,15.50
2015,08,22,05,46,15.50
2015,08,22,05,47,15.60
2015,08,22,05,48,15.60
2015,08,22,05,49,15.60
2015,08,22,05,50,15.60
2015,08,22,05,51,15.60
2015,08,22,05,52,15.60
2015,08,22,05,53,15.60
2015,08,22,05,54,15.60
2015,08,22,05,55,15.60
2015,08,22,05,56,15.60
2015,08,22,05,57,15.60
2015,08,22,05,58,15.60
2015,08,22,05,59,15.70
2015,08,22,06,00,15.70
2015,08,22,06,01,15.70
2015,08,22,06,02,15.80
2015,08,22,06,03,15.80
2015,08,22,06,04,15.80
2015,08,22,06,05,15.90
2015,08,22,06,06,15.90
2015,08,22,06,07,15.90
2015,08,22,06,08,16.00
2015,08,22,06,09,16.00
2015,08,22,06,10,16.00
2015,08,22,06,11,16.10
2015,08,22,06,12,16.00
2015,08,22,06,13,16.00
2015,08,22,06,14,16.00
2015,08,22,06,15,16.00
2015,08,22,06,16,16.00
2015,08,22,06,17,16.10
2015,08,22,06,18,16.10
2015,08,22,06,19,16.10
2015,08,22,06,20,16.10
2015,08,22,06,21,16.10
2015,08,22,06,22,16.10
2015,08,22,06,23,16.10
2015,08,22,06,24,16.10
2015,08,22,06,25,16.10
2015,08,22,06,26,16.10
2015,08,22,06,27,16.10
2015,08,22,06,28,16.10
2015,08,22,06,29,16.10
2015,08,22,06,30,16.20
2015,08,22,06,31,16.20
2015,08,22,06,32,16.20
2015,08,22,06,33,16.20
2015,08,22,06,34,16.20
2015,08,22,06,35,16.20
2015,08,22,06,36,16.20
2015,08,22,06,37,16.30
2015,08,22,06,38,16.30
2015,08,22,06,39,16.30
2015,08,22,06,40,16.30
2015,08,22,06,41,16.30
2015,08,22,06,42,16.30
2015,08,22,06,43,16.30
2015,08,22,06,44,16.30
2015,08,22,06,45,16.20
2015,08,22,06,46,16.20
2015,08,22,06,47,16.20
2015,08,22,06,48,16.20
2015,08,22,06,49,16.20
2015,08,22,06,50,16.20
2015,08,22,06,51,16.20
2015,08,22,06,52,16.20
2015,08,22,06,53,16.20
2015,08,22,06,54,16.30
2015,08,22,06,55,16.20
2015,08,22,06,56,16.20
2015,08,22,06,57,16.20
2015,08,22,06,58,16.20
2015,08,22,06,59,16.20
2015,08,22,07,00,16.20
2015,08,22,07,01,16.30
2015,08,22,07,02,16.30
2015,08,22,07,03,16.30
2015,08,22,07,04,16.30
2015,08,22,07,05,16.40
2015,08,22,07,06,16.40
2015,08,22,07,07,16.50
2015,08,22,07,08,16.50
2015,08,22,07,09,16.60
2015,08,22,07,10,16.60
2015,08,22,07,11,16.60
2015,08,22,07,12,16.60
2015,08,22,07,13,16.60
2015,08,22,07,14,16.60
2015,08,22,07,15,16.60
2015,08,22,07,16,16.60
2015,08,22,07,17,16.60
2015,08,22,07,18,16.60
2015,08,22,07,19,16.60
2015,08,22,07,20,16.60
2015,08,22,07,21,16.60
2015,08,22,07,22,16.60
2015,08,22,07,23,16.60
2015,08,22,07,24,16.60
2015,08,22,07,25,16.60
2015,08,22,07,26,16.60
2015,08,22,07,27,16.60
2015,08,22,07,28,16.60
2015,08,22,07,29,16.60
2015,08,22,07,30,16.60
2015,08,22,07,31,16.70
2015,08,22,07,32,16.70
2015,08,22,07,33,16.70
2015,08,22,07,34,16.80
2015,08,22,07,35,16.80
2015,08,22,07,36,16.90
2015,08,22,07,37,16.90
2015,08,22,07,38,17.00
2015,08,22,07,39,17.10
2015,08,22,07,40,17.10
2015,08,22,07,41,17.20
2015,08,22,07,42,17.20
2015,08,22,07,43,17.20
2015,08,22,07,44,17.20
2015,08,22,07,45,17.20
2015,08,22,07,46,17.10
2015,08,22,07,47,17.10
2015,08,22,07,48,17.10
2015,08,22,07,49,17.10
2015,08,22,07,50,17.10
2015,08,22,07,51,17.20
2015,08,22,07,52,17.20
2015,08,22,07,53,17.20
2015,08,22,07,54,17.30
2015,08,22,07,55,17.30
2015,08,22,07,56,17.30
2015,08,22,07,57,17.30
2015,08,22,07,58,17.30
2015,08,22,07,59,17.30
2015,08,22,08,00,17.40
2015,08,22,08,01,17.40
2015,08,22,08,02,17.50
2015,08,22,08,03,17.50
2015,08,22,08,04,17.60
2015,08,22,08,05,17.60
2015,08,22,08,06,17.60
2015,08,22,08,07,17.70
2015,08,22,08,08,17.70
2015,08,22,08,09,17.70
2015,08,22,08,10,17.70
2015,08,22,08,11,17.70
2015,08,22,08,12,17.70
2015,08,22,08,13,17.60
2015,08,22,08,14,17.60
2015,08,22,08,15,17.60
2015,08,22,08,16,17.70
2015,08,22,08,17,17.70
2015,08,22,08,18,17.70
2015,08,22,08,19,17.80
2015,08,22,08,20,17.80
2015,08,22,08,21,17.70
2015,08,22,08,22,17.60
2015,08,22,08,23,17.50
2015,08,22,08,24,17.40
2015,08,22,08,25,17.40
2015,08,22,08,26,17.30
2015,08,22,08,27,17.30
2015,08,22,08,28,17.40
2015,08,22,08,29,17.40
2015,08,22,08,30,17.30
2015,08,22,08,31,17.30
2015,08,22,08,32,17.30
2015,08,22,08,33,17.30
2015,08,22,08,34,17.30
2015,08,22,08,35,17.30
2015,08,22,08,36,17.30
2015,08,22,08,37,17.40
2015,08,22,08,38,17.40
2015,08,22,08,39,17.40
2015,08,22,08,40,17.40
2015,08,22,08,41,17.50
2015,08,22,08,42,17.50
2015,08,22,08,43,17.60
2015,08,22,08,44,17.70
2015,08,22,08,45,17.70
2015,08,22,08,46,17.70
2015,08,22,08,47,17.80
2015,08,22,08,48,17.80
2015,08,22,08,49,17.80
2015,08,22,08,50,17.80
2015,08,22,08,51,17.80
2015,08,22,08,52,17.90
2015,08,22,08,53,18.00
2015,08,22,08,54,18.00
2015,08,22,08,55,18.10
2015,08,22,08,56,18.20
2015,08,22,08,57,18.30
2015,08,22,08,58,18.30
2015,08,22,08,59,18.30
2015,08,22,09,00,18.30
2015,08,22,09,01,18.40
2015,08,22,09,02,18.40
2015,08,22,09,03,18.40
2015,08,22,09,04,18.40
2015,08,22,09,05,18.50
2015,08,22,09,06,18.50
2015,08,22,09,07,18.60
2015,08,22,09,08,18.60
2015,08,22,09,09,18.60
2015,08,22,09,10,18.70
2015,08,22,09,11,18.60
2015,08,22,09,12,18.60
2015,08,22,09,13,18.50
2015,08,22,09,14,18.40
2015,08,22,09,15,18.40
2015,08,22,09,16,18.50
2015,08,22,09,17,18.50
2015,08,22,09,18,18.50
2015,08,22,09,19,18.60
2015,08,22,09,20,18.70
2015,08,22,09,21,18.70
2015,08,22,09,22,18.80
2015,08,22,09,23,18.80
2015,08,22,09,24,18.80
2015,08,22,09,25,18.80
2015,08,22,09,26,18.80
2015,08,22,09,27,18.80
2015,08,22,09,28,18.80
2015,08,22,09,29,18.80
2015,08,22,09,30,18.90
2015,08,22,09,31,18.90
2015,08,22,09,32,18.90
2015,08,22,09,33,18.90
2015,08,22,09,34,18.90
2015,08,22,09,35,19.00
2015,08,22,09,36,19.10
2015,08,22,09,37,19.10
2015,08,22,09,38,19.10
2015,08,22,09,39,19.20
2015,08,22,09,40,19.30
2015,08,22,09,41,19.30
2015,08,22,09,42,19.30
2015,08,22,09,43,19.30
2015,08,22,09,44,19.30
2015,08,22,09,45,19.30
2015,08,22,09,46,19.30
2015,08,22,09,47,19.30
2015,08,22,09,48,19.30
2015,08,22,09,49,19.30
2015,08,22,09,50,19.30
2015,08,22,09,51,19.30
2015,08,22,09,52,19.30
2015,08,22,09,53,19.30
2015,08,22,09,54,19.30
2015,08,22,09,55,19.40
2015,08,22,09,56,19.40
2015,08,22,09,57,19.30
2015,08,22,09,58,19.30
2015,08,22,09,59,19.30
2015,08,22,10,00,19.40
2015,08,22,10,01,19.50
2015,08,22,10,02,19.50
2015,08,22,10,03,19.60
2015,08,22,10,04,19.70
2015,08,22,10,05,19.70
2015,08,22,10,06,19.70
2015,08,22,10,07,19.70
2015,08,22,10,08,19.80
2015,08,22,10,09,19.80
2015,08,22,10,10,19.90
2015,08,22,10,11,20.00
2015,08,22,10,12,20.00
2015,08,22,10,13,20.10
2015,08,22,10,14,20.10
2015,08,22,10,15,20.10
2015,08,22,10,16,20.10
2015,08,22,10,17,20.00
2015,08,22,10,18,19.90
2015,08,22,10,19,19.90
2015,08,22,10,20,19.90
2015,08,22,10,21,19.90
2015,08,22,10,22,19.80
2015,08,22,10,23,19.80
2015,08,22,10,24,19.80
2015,08,22,10,25,19.80
2015,08,22,10,26,19.90
2015,08,22,10,27,20.00
2015,08,22,10,28,20.10
2015,08,22,10,29,20.00
2015,08,22,10,30,19.90
2015,08,22,10,31,19.90
2015,08,22,10,32,19.90
2015,08,22,10,33,19.90
2015,08,22,10,34,19.80
2015,08,22,10,35,19.80
2015,08,22,10,36,19.80
2015,08,22,10,37,19.80
2015,08,22,10,38,19.80
2015,08,22,10,39,19.90
2015,08,22,10,40,20.00
2015,08,22,10,41,20.10
2015,08,22,10,42,20.10
2015,08,22,10,43,20.10
2015,08,22,10,44,20.20
2015,08,22,10,45,20.20
2015,08,22,10,46,20.30
2015,08,22,10,47,20.30
2015,08,22,10,48,20.30
2015,08,22,10,49,20.30
2015,08,22,10,50,20.40
2015,08,22,10,51,20.40
2015,08,22,10,52,20.40
2015,08,22,10,53,20.40
2015,08,22,10,54,20.40
2015,08,22,10,55,20.40
2015,08,22,10,56,20.40
2015,08,22,10,57,20.40
2015,08,22,10,58,20.40
2015,08,22,10,59,20.30
2015,08,22,11,00,20.30
2015,08,22,11,01,20.40
2015,08,22,11,02,20.40
2015,08,22,11,03,20.30
2015,08,22,11,04,20.30
2015,08,22,11,05,20.30
2015,08,22,11,06,20.40
2015,08,22,11,07,20.40
2015,08,22,11,08,20.40
2015,08,22,11,09,20.50
2015,08,22,11,10,20.50
2015,08,22,11,11,20.40
2015,08,22,11,12,20.40
2015,08,22,11,13,20.40
2015,08,22,11,14,20.50
2015,08,22,11,15,20.60
2015,08,22,11,16,20.70
2015,08,22,11,17,20.60
2015,08,22,11,18,20.60
2015,08,22,11,19,20.60
2015,08,22,11,20,20.70
2015,08,22,11,21,20.80
2015,08,22,11,22,20.80
2015,08,22,11,23,20.90
2015,08,22,11,24,20.90
2015,08,22,11,25,20.90
2015,08,22,11,26,20.90
2015,08,22,11,27,21.00
2015,08,22,11,28,21.00
2015,08,22,11,29,21.00
2015,08,22,11,30,21.10
2015,08,22,11,31,21.10
2015,08,22,11,32,21.20
2015,08,22,11,33,21.20
2015,08,22,11,34,21.30
2015,08,22,11,35,21.30
2015,08,22,11,36,21.30
2015,08,22,11,37,21.30
2015,08,22,11,38,21.30
2015,08,22,11,39,21.30
2015,08,22,11,40,21.20
2015,08,22,11,41,21.20
2015,08,22,11,42,21.20
2015,08,22,11,43,21.30
2015,08,22,11,44,21.30
2015,08,22,11,45,21.30
2015,08,22,11,46,21.40
2015,08,22,11,47,21.50
2015,08,22,11,48,21.50
2015,08,22,11,49,21.60
2015,08,22,11,50,21.60
2015,08,22,11,51,21.60
2015,08,22,11,52,21.60
2015,08,22,11,53,21.60
2015,08,22,11,54,21.60
2015,08,22,11,55,21.50
2015,08,22,11,56,21.40
2015,08,22,11,57,21.30
2015,08,22,11,58,21.30
2015,08,22,11,59,21.30
2015,08,22,12,00,21.40
2015,08,22,12,01,21.40
2015,08,22,12,02,21.40
2015,08,22,12,03,21.40
2015,08,22,12,04,21.40
2015,08,22,12,05,21.40
2015,08,22,12,06,21.40
2015,08,22,12,07,21.30
2015,08,22,12,08,21.30
2015,08,22,12,09,21.40
2015,08,22,12,10,21.50
2015,08,22,12,11,21.50
2015,08,22,12,12,21.60
2015,08,22,12,13,21.60
2015,08,22,12,14,21.70
2015,08,22,12,15,21.70
2015,08,22,12,16,21.80
2015,08,22,12,17,21.80
2015,08,22,12,18,21.80
2015,08,22,12,19,21.80
2015,08,22,12,20,21.80
2015,08,22,12,21,21.80
2015,08,22,12,22,21.80
2015,08,22,12,23,21.80
2015,08,22,12,24,21.80
2015,08,22,12,25,21.80
2015,08,22,12,26,21.70
2015,08,22,12,27,21.80
2015,08,22,12,28,21.80
2015,08,22,12,29,21.80
2015,08,22,12,30,21.80
2015,08,22,12,31,21.80
2015,08,22,12,32,21.80
2015,08,22,12,33,21.90
2015,08,22,12,34,22.00
2015,08,22,12,35,22.00
2015,08,22,12,36,22.10
2015,08,22,12,37,22.10
2015,08,22,12,38,22.10
2015,08,22,12,39,22.00
2015,08,22,12,40,21.90
2015,08,22,12,41,21.80
2015,08,22,12,42,21.70
2015,08,22,12,43,21.70
2015,08,22,12,44,21.70
2015,08,22,12,45,21.70
2015,08,22,12,46,21.70
2015,08,22,12,47,21.70
2015,08,22,12,48,21.70
2015,08,22,12,49,21.60
2015,08,22,12,50,21.60
2015,08,22,12,51,21.60
2015,08,22,12,52,21.60
2015,08,22,12,53,21.60
2015,08,22,12,54,21.70
2015,08,22,12,55,21.80
2015,08,22,12,56,21.80
2015,08,22,12,57,21.90
2015,08,22,12,58,22.00
2015,08,22,12,59,22.10
2015,08,22,13,00,22.10
2015,08,22,13,01,22.10
2015,08,22,13,02,22.10
2015,08,22,13,03,22.10
2015,08,22,13,04,22.20
2015,08,22,13,05,22.30
2015,08,22,13,06,22.30
2015,08,22,13,07,22.30
2015,08,22,13,08,22.40
2015,08,22,13,09,22.50
2015,08,22,13,10,22.60
2015,08,22,13,11,22.60
2015,08,22,13,12,22.50
2015,08,22,13,13,22.50
2015,08,22,13,14,22.40
2015,08,22,13,15,22.40
2015,08,22,13,16,22.30
2015,08,22,13,17,22.30
2015,08,22,13,18,22.30
2015,08,22,13,19,22.30
2015,08,22,13,20,22.30
2015,08,22,13,21,22.30
2015,08,22,13,22,22.30
2015,08,22,13,23,22.30
2015,08,22,13,24,22.30
2015,08,22,13,25,22.20
2015,08,22,13,26,22.10
2015,08,22,13,27,22.00
2015,08,22,13,28,21.90
2015,08,22,13,29,21.90
2015,08,22,13,30,21.90
2015,08,22,13,31,21.80
2015,08,22,13,32,21.80
2015,08,22,13,33,21.80
2015,08,22,13,34,21.70
2015,08,22,13,35,21.70
2015,08,22,13,36,21.70
2015,08,22,13,37,21.70
2015,08,22,13,38,21.70
2015,08,22,13,39,21.70
2015,08,22,13,40,21.80
2015,08,22,13,41,21.80
2015,08,22,13,42,21.80
2015,08,22,13,43,21.70
2015,08,22,13,44,21.80
2015,08,22,13,45,21.80
2015,08,22,13,46,21.80
2015,08,22,13,47,21.90
2015,08,22,13,48,21.90
2015,08,22,13,49,22.00
2015,08,22,13,50,22.10
2015,08,22,13,51,22.20
2015,08,22,13,52,22.30
2015,08,22,13,53,22.30
2015,08,22,13,54,22.40
2015,08,22,13,55,22.50
2015,08,22,13,56,22.60
2015,08,22,13,57,22.70
2015,08,22,13,58,22.70
2015,08,22,13,59,22.50
2015,08,22,14,00,22.40
2015,08,22,14,01,22.40
2015,08,22,14,02,22.50
2015,08,22,14,03,22.60
2015,08,22,14,04,22.60
2015,08,22,14,05,22.60
2015,08,22,14,06,22.60
2015,08,22,14,07,22.70
2015,08,22,14,08,22.60
2015,08,22,14,09,22.50
2015,08,22,14,10,22.50
2015,08,22,14,11,22.40
2015,08,22,14,12,22.40
2015,08,22,14,13,22.40
2015,08,22,14,14,22.30
2015,08,22,14,15,22.40
2015,08,22,14,16,22.40
2015,08,22,14,17,22.40
2015,08,22,14,18,22.40
2015,08,22,14,19,22.40
2015,08,22,14,20,22.40
2015,08,22,14,21,22.40
2015,08,22,14,22,22.40
2015,08,22,14,23,22.30
2015,08,22,14,24,22.30
2015,08,22,14,25,22.40
2015,08,22,14,26,22.50
2015,08,22,14,27,22.50
2015,08,22,14,28,22.60
2015,08,22,14,29,22.60
2015,08,22,14,30,22.60
2015,08,22,14,31,22.60
2015,08,22,14,32,22.50
2015,08,22,14,33,22.50
2015,08,22,14,34,22.40
2015,08,22,14,35,22.40
2015,08,22,14,36,22.30
2015,08,22,14,37,22.30
2015,08,22,14,38,22.30
2015,08,22,14,39,22.30
2015,08,22,14,40,22.30
2015,08,22,14,41,22.30
2015,08,22,14,42,22.30
2015,08,22,14,43,22.40
2015,08,22,14,44,22.50
2015,08,22,14,45,22.60
2015,08,22,14,46,22.70
2015,08,22,14,47,22.70
2015,08,22,14,48,22.70
2015,08,22,14,49,22.80
2015,08,22,14,50,22.80
2015,08,22,14,51,22.90
2015,08,22,14,52,22.90
2015,08,22,14,53,23.00
2015,08,22,14,54,23.10
2015,08,22,14,55,23.10
2015,08,22,14,56,23.10
2015,08,22,14,57,23.20
2015,08,22,14,58,23.30
2015,08,22,14,59,23.30
2015,08,22,15,00,23.30
2015,08,22,15,01,23.30
2015,08,22,15,02,23.20
2015,08,22,15,03,23.10
2015,08,22,15,04,23.10
2015,08,22,15,05,23.20
2015,08,22,15,06,23.20
2015,08,22,15,07,23.20
2015,08,22,15,08,23.40
2015,08,22,15,09,23.50
2015,08,22,15,10,23.60
2015,08,22,15,11,23.60
2015,08,22,15,12,23.70
2015,08,22,15,13,23.80
2015,08,22,15,14,23.80
2015,08,22,15,15,23.80
2015,08,22,15,16,23.70
2015,08,22,15,17,23.70
2015,08,22,15,18,23.60
2015,08,22,15,19,23.70
2015,08,22,15,20,23.70
2015,08,22,15,21,23.70
2015,08,22,15,22,23.70
2015,08,22,15,23,23.70
2015,08,22,15,24,23.70
2015,08,22,15,25,23.70
2015,08,22,15,26,23.70
2015,08,22,15,27,23.80
2015,08,22,15,28,23.80
2015,08,22,15,29,23.80
2015,08,22,15,30,23.90
2015,08,22,15,31,23.90
2015,08,22,15,32,24.00
2015,08,22,15,33,24.10
2015,08,22,15,34,24.20
2015,08,22,15,35,24.20
2015,08,22,15,36,24.20
2015,08,22,15,37,24.20
2015,08,22,15,38,24.30
2015,08,22,15,39,24.40
2015,08,22,15,40,24.50
2015,08,22,15,41,24.50
2015,08,22,15,42,24.60
2015,08,22,15,43,24.60
2015,08,22,15,44,24.60
2015,08,22,15,45,24.60
2015,08,22,15,46,24.60
2015,08,22,15,47,24.60
2015,08,22,15,48,24.60
2015,08,22,15,49,24.70
2015,08,22,15,50,24.70
2015,08,22,15,51,24.70
2015,08,22,15,52,24.60
2015,08,22,15,53,24.60
2015,08,22,15,54,24.60
2015,08,22,15,55,24.60
2015,08,22,15,56,24.70
2015,08,22,15,57,24.70
2015,08,22,15,58,24.70
2015,08,22,15,59,24.70
2015,08,22,16,00,24.70
2015,08,22,16,01,24.60
2015,08,22,16,02,24.50
2015,08,22,16,03,24.50
2015,08,22,16,04,24.50
2015,08,22,16,05,24.50
2015,08,22,16,06,24.50
2015,08,22,16,07,24.60
2015,08,22,16,08,24.60
2015,08,22,16,09,24.70
2015,08,22,16,10,24.70
2015,08,22,16,11,24.70
2015,08,22,16,12,24.70
2015,08,22,16,13,24.70
2015,08,22,16,14,24.70
2015,08,22,16,15,24.60
2015,08,22,16,16,24.60
2015,08,22,16,17,24.60
2015,08,22,16,18,24.60
2015,08,22,16,19,24.60
2015,08,22,16,20,24.60
2015,08,22,16,21,24.50
2015,08,22,16,22,24.40
2015,08,22,16,23,24.40
2015,08,22,16,24,24.30
2015,08,22,16,25,24.40
2015,08,22,16,26,24.50
2015,08,22,16,27,24.60
2015,08,22,16,28,24.70
2015,08,22,16,29,24.80
2015,08,22,16,30,24.80
2015,08,22,16,31,24.90
2015,08,22,16,32,25.00
2015,08,22,16,33,25.10
2015,08,22,16,34,25.20
2015,08,22,16,35,25.20
2015,08,22,16,36,25.20
2015,08,22,16,37,25.20
2015,08,22,16,38,25.10
2015,08,22,16,39,25.00
2015,08,22,16,40,24.90
2015,08,22,16,41,25.00
2015,08,22,16,42,24.90
2015,08,22,16,43,25.00
2015,08,22,16,44,25.00
2015,08,22,16,45,25.10
2015,08,22,16,46,25.10
2015,08,22,16,47,25.20
2015,08,22,16,48,25.20
2015,08,22,16,49,25.20
2015,08,22,16,50,25.20
2015,08,22,16,51,25.20
2015,08,22,16,52,25.10
2015,08,22,16,53,25.00
2015,08,22,16,54,25.00
2015,08,22,16,55,24.90
2015,08,22,16,56,24.90
2015,08,22,16,57,24.80
2015,08,22,16,58,24.90
2015,08,22,16,59,24.80
2015,08,22,17,00,24.90
2015,08,22,17,01,24.90
2015,08,22,17,02,24.90
2015,08,22,17,03,25.00
2015,08,22,17,04,25.10
2015,08,22,17,05,25.10
2015,08,22,17,06,25.20
2015,08,22,17,07,25.20
2015,08,22,17,08,25.20
2015,08,22,17,09,25.10
2015,08,22,17,10,25.20
2015,08,22,17,11,25.20
2015,08,22,17,12,25.20
2015,08,22,17,13,25.20
2015,08,22,17,14,25.20
2015,08,22,17,15,25.20
2015,08,22,17,16,25.20
2015,08,22,17,17,25.20
2015,08,22,17,18,25.20
2015,08,22,17,19,25.20